User: anonymous   Login
Location: *
(44.1392°N, 4.8079°E)
Time: 16:56:17
(UTC+00:00)
Language:

IRIDIUM 103 - Orbit

View from above orbital plane
View from above orbital plane
View from above satellite
View from above satellite

Ground track
Ground track

The orbit data is extracted from the following two-line orbital elements,

1 41918U 17003B   21259.07927295  .00000018  00000-0 -71407-6 0  9999
2 41918  86.3917  93.5239 0001793  78.8174 281.3223 14.34218282244540
Epoch (UTC): 16 September 2021 01:54:09
Eccentricity: 0.0001793
inclination: 86.3917°
perigee height: 776 km
apogee height: 779 km
right ascension of ascending node: 93.5239°
argument of perigee: 78.8174°
revolutions per day: 14.34218282
mean anomaly at epoch: 281.3223°
orbit number at epoch: 24454

The dashed part of the orbit path shows where the satellite is in the earth's shadow,  

DLR